Regional Weather Roundup
Issued by NWS

Home | Current Version | Previous Version | Text Only | Print | Product List | Glossary Off
Versions: 1 2 3 4 5 6 7 8 9 10 11 12 13 14 15 16 17 18 19 20 21 22 23 24 25 26 27 28 29 30 31 32 33 34 35 36 37 38 39 40 41 42 43 44 45 46 47 48 49 50

000
ASUS43 KMKX 240020
RWRWI

WISCONSIN REGIONAL WEATHER ROUNDUP
NATIONAL WEATHER SERVICE MILWAUKEE/SULLIVAN WI
600 PM CST TUE JAN 23 2018

NOTE: "FAIR" INDICATES FEW OR NO CLOUDS BELOW 12,000 FEET WITH NO
SIGNIFICANT WEATHER AND/OR OBSTRUCTIONS TO VISIBILITY.

WIZ001-002-006>008-014>016-023>028-240100-
NORTHWEST WISCONSIN

CITY           SKY/WX    TMP DP  RH WIND       PRES   REMARKS
SUPERIOR ARPT  FAIR      17   7  62 CALM      30.14R
6HR MIN TEMP:  16; 6HR MAX TEMP:  25;

ASHLAND        FAIR      17  14  88 W5        30.13R WCI  10
6HR MIN TEMP:  17; 6HR MAX TEMP:  23;

HAYWARD        CLOUDY    20  12  71 N7        30.11R WCI  11
6HR MIN TEMP:  19; 6HR MAX TEMP:  23;

SIREN          FAIR      14   8  75 CALM      30.14R
6HR MIN TEMP:  14; 6HR MAX TEMP:  22;

CUMBERLAND     CLOUDY    12   7  79 NW5       30.11R WCI   4
RICE LAKE      CLOUDY    18  13  81 CALM      30.13S
6HR MIN TEMP:  18; 6HR MAX TEMP:  20;

CHETEK         CLOUDY    17  13  84 CALM      30.12R
6HR MIN TEMP:  17; 6HR MAX TEMP:  19;

LADYSMITH      CLOUDY    20  16  83 N6        30.11R WCI  13
EAU CLAIRE     CLOUDY    17  14  88 N5        30.13R WCI  10
6HR MIN TEMP:  16; 6HR MAX TEMP:  20; 6HR PCP: TRACE;

MENOMONIE      FAIR      16  11  82 N3        30.14R
6HR MIN TEMP:  15; 6HR MAX TEMP:  22;

NEW RICHMOND   FAIR      13   6  75 CALM      30.14R
6HR MIN TEMP:  12; 6HR MAX TEMP:  21;

OSCEOLA        FAIR      14   8  78 CALM      30.17R
6HR MIN TEMP:  14; 6HR MAX TEMP:  23;

$$

WIZ003>005-009-010-017-018-240100-
NORTH CENTRAL WISCONSIN

CITY           SKY/WX    TMP DP  RH WIND       PRES   REMARKS
MANITOWISH WTR FLURRIES  18  16  93 N3        30.04R
6HR MIN TEMP:  17; 6HR MAX TEMP:  19;

ARBOR VITAE    CLOUDY    19  14  79 N5        30.04R WCI  13
6HR MIN TEMP:  19; 6HR MAX TEMP:  22;

WOODRUFF       CLOUDY    19  14  79 N5        30.04R WCI  13
6HR MIN TEMP:  19; 6HR MAX TEMP:  22;

RHINELANDER    CLOUDY    20  16  84 N5        30.04R WCI  13
6HR MIN TEMP:  20; 6HR MAX TEMP:  21;

EAGLE RIVER    MOCLDY    15  10  80 N5        30.03R WCI   8
6HR MIN TEMP:  17; 6HR MAX TEMP:  19;

LAND O LAKES   FLURRIES  15  11  86 N9        30.05R WCI   3
6HR MIN TEMP:  15; 6HR MAX TEMP:  19;

PHILLIPS       FLURRIES  19  15  86 NW5       30.06R WCI  12
6HR MIN TEMP:  19; 6HR MAX TEMP:  20;

TOMAHAWK       CLOUDY    19  16  86 NW5       30.05R WCI  13
6HR MIN TEMP:  19; 6HR MAX TEMP:  22;

MEDFORD        CLOUDY    20  16  84 N5        30.05R WCI  13
6HR MIN TEMP:  20; 6HR MAX TEMP:  22;

MERRILL        CLOUDY    21  17  84 N7        30.06R WCI  12
6HR MIN TEMP:  21; 6HR MAX TEMP:  24;

$$

WIZ029-030-035-036-043>047-240100-
CENTRAL WISCONSIN

CITY           SKY/WX    TMP DP  RH WIND       PRES   REMARKS
WAUSAU         CLOUDY    22  17  81 N8        30.04R WCI  12
6HR MIN TEMP:  22; 6HR MAX TEMP:  25;

MOSINEE        CLOUDY    23  19  86 NW7       30.06R WCI  15
MARSHFIELD     CLOUDY    21  16  81 NW7       30.05R WCI  12
6HR MIN TEMP:  21; 6HR MAX TEMP:  23;

STEVENS POINT  CLOUDY    22  18  81 NW6       30.07R WCI  15
6HR MIN TEMP:  22; 6HR MAX TEMP:  24;

WAUPACA        CLOUDY    29  20  70 W6        30.06R WCI  23
6HR MIN TEMP:  29; 6HR MAX TEMP:  31;

WAUTOMA        NOT AVBL
WISC RAPIDS    CLOUDY    23  16  74 NW8       30.09R WCI  14
6HR MIN TEMP:  23; 6HR MAX TEMP:  25;

CAMP DOUGLAS   CLOUDY    23  19  86 NW7       30.10R WCI  15
$$

WIZ011>013-019>022-031-037>040-048>050-240100-
NORTHEAST WISCONSIN

CITY           SKY/WX    TMP DP  RH WIND       PRES   REMARKS
ANTIGO         MOCLDY    17  14  87 N7        30.03R WCI   8
6HR MIN TEMP:  17; 6HR MAX TEMP:  22;

SHAWANO        CLOUDY    26  19  76 CALM      30.06R
6HR MIN TEMP:  26; 6HR MAX TEMP:  31;

OCONTO         FAIR      23  17  77 N3        30.06R
6HR MIN TEMP:  23; 6HR MAX TEMP:  27;

STURGEON BAY   CLOUDY    23  16  74 NW15      30.04R WCI  10
6HR MIN TEMP:  23; 6HR MAX TEMP:  27;

GREEN BAY      CLOUDY    27  20  75 NW8       30.06R WCI  19
6HR MIN TEMP:  27; 6HR MAX TEMP:  29;

MANITOWOC      FAIR      25  20  81 NW7       30.05R WCI  17
6HR MIN TEMP:  25; 6HR MAX TEMP:  29; 6HR PCP: TRACE;

APPLETON       CLOUDY    27  18  69 NW8       30.03R WCI  18
CLINTONVILLE   CLOUDY    27  18  69 N6        30.06R WCI  20
OSHKOSH        CLOUDY    28  21  75 NW5       30.05R WCI  23
6HR MIN TEMP:  27; 6HR MAX TEMP:  28;

$$

WIZ032>034-041-042-053>061-240100-
SOUTHWEST WISCONSIN

CITY           SKY/WX    TMP DP  RH WIND       PRES   REMARKS
LA CROSSE      CLOUDY    24  18  77 N8        30.14R WCI  15
6HR MIN TEMP:  24; 6HR MAX TEMP:  25;

SPARTA         CLOUDY    22  19  89 NW6       30.13R WCI  15
6HR MIN TEMP:  22; 6HR MAX TEMP:  24;

VIROQUA        CLOUDY    22  20  95 NW10      30.09R WCI  11
6HR MIN TEMP:  22; 6HR MAX TEMP:  23;

BOSCOBEL       CLOUDY    26  19  74 W6        30.13R WCI  19
6HR MIN TEMP:  25; 6HR MAX TEMP:  28;

PRAIRIE DU CHI CLOUDY    25  18  76 NW7       30.14R WCI  17
6HR MIN TEMP:  25; 6HR MAX TEMP:  26;

PLATTEVILLE    CLOUDY    25  23  95 NW10      30.10R WCI  14
6HR MIN TEMP:  25; 6HR MAX TEMP:  28;

$$

WIZ056-057-062-063-064-067-068-240100-
SOUTH CENTRAL WISCONSIN

CITY           SKY/WX    TMP DP  RH WIND       PRES   REMARKS
REEDSBURG      CLOUDY    24  21  87 N10       30.09R WCI  14
6HR MIN TEMP:  24; 6HR MAX TEMP:  25;

BARABOO/DELLS  CLOUDY    24  21  88 NW9       30.08R WCI  14
6HR MIN TEMP:  24; 6HR MAX TEMP:  25;

LONE ROCK      CLOUDY    26  22  84 W7        30.12R WCI  18
6HR MIN TEMP:  26; 6HR MAX TEMP:  28;

MINERAL POINT  CLOUDY    28  27  93 NW6       30.08R WCI  22
MADISON        CLOUDY    25  21  85 NW6       30.08R WCI  18
6HR MIN TEMP:  25; 6HR MAX TEMP:  27; 6HR PCP: TRACE;

MIDDLETON      CLOUDY    28  24  85 NW8       30.08R WCI  19
6HR MIN TEMP:  28; 6HR MAX TEMP:  29;

WATERTOWN      CLOUDY    26  24  89 W7        30.06R WCI  19
6HR MIN TEMP:  26; 6HR MAX TEMP:  27;

MONROE         CLOUDY    28  23  80 NW6       30.07R WCI  22
JANESVILLE     CLOUDY    28  28 100 N7        30.07R WCI  21
$$

WIZ051-052-058>065-066-070>072-240100-
SOUTHEAST WISCONSIN

CITY           SKY/WX    TMP DP  RH WIND       PRES   REMARKS
MILWAUKEE      CLOUDY    30  22  72 NW9       30.05R WCI  22
6HR MIN TEMP:  29; 6HR MAX TEMP:  30;

WAUKESHA       CLOUDY    25  21  86 NW10      30.06R WCI  15
MILWAUKEE/TIMM CLOUDY    28  19  69 NW8       30.06R WCI  20
RACINE         CLOUDY    29  24  82 NW6       30.07R WCI  23
6HR MIN TEMP:  29; 6HR MAX TEMP:  29;

BURLINGTON     CLOUDY    27  22  83 NW8       30.07R WCI  18
6HR MIN TEMP:  27; 6HR MAX TEMP:  28;

KENOSHA        CLOUDY    28  23  81 NW9       30.06R WCI  19
6HR MIN TEMP:  28; 6HR MAX TEMP:  29;

FOND DU LAC    CLOUDY    28  20  71 NW6       30.06R WCI  22
6HR MIN TEMP:  28; 6HR MAX TEMP:  29;

SHEBOYGAN      CLOUDY    28  21  75 NW8       30.04R WCI  20
6HR MIN TEMP:  27; 6HR MAX TEMP:  29;

WEST BEND      CLOUDY    28  23  80 NW8       30.05R WCI  20
JUNEAU         CLOUDY    26  21  82 CALM      30.07R
6HR MIN TEMP:  26; 6HR MAX TEMP:  27;

$$

LSZ147-162-240100-
LAKE SUPERIOR

STATION/POSITION TIME  TEMP    WIND        PRES    WAVE
                       AIR SEA DIR/SP/G            HT/PER
                 (UTC) (F)     (DEG/KT/KT) (MB)    (FT/S)
DEVILS ISLAND    0000   23     110/  8/  9 1021.4R
SAXON HARBOR     2340   23      70/  5/ 12 1019.6R
$$

LMZ867-665-643>646-240100-
LAKE MICHIGAN

STATION/POSITION TIME  TEMP    WIND        PRES    WAVE
                       AIR SEA DIR/SP/G            HT/PER
                 (UTC) (F)     (DEG/KT/KT) (MB)    (FT/S)
NORTHPORT PIER   0000   22     320/  8/ 15 1016.6
KEWAUNEE LAKESHO 2354   26     320/  8/ 12 1016.4R
SHEBOYGAN LAKESH 0000   28     300/  9/ 11 1018.3R
PORT WASHING



USA.gov is the U.S. government's official web portal to all federal, state and local government web resources and services.